Location: Greenwich
(51.4790°N, 0.0090°E)
Time: 18:28:23
(UTC+01:00)

SR - All Passes

Search period start: 23 April 2024 00:00
Search period end: 03 May 2024 00:00
Orbit: 577 x 862 km, 66.7° (Epoch: 22 April)

Date Brightness Start Highest point End Pass type
(mag) Time Alt. Az. Time Alt. Az. Time Alt. Az.
23 Apr - 01:35:38 10° S 01:40:34 35° ESE 01:45:12 10° NE visible
23 Apr - 03:17:06 10° WSW 03:22:22 52° NW 03:27:16 10° NNE visible
23 Apr - 05:01:44 10° WNW 05:05:19 19° NNW 05:08:44 10° NNE visible
23 Apr - 06:46:45 10° NNW 06:49:06 13° N 06:51:23 10° NNE daylight
23 Apr - 08:29:00 10° NNW 08:32:45 23° NNE 08:36:17 10° E daylight
23 Apr - 10:10:40 10° NW 10:15:18 88° NE 10:19:37 10° SE daylight
23 Apr - 11:54:04 10° WNW 11:56:22 14° WSW 11:58:38 10° SW daylight
24 Apr - 00:44:57 10° SSE 00:48:44 19° ESE 00:52:23 10° ENE visible
24 Apr - 02:24:40 10° SW 02:30:08 87° NW 02:35:11 10° NE visible
24 Apr - 04:08:20 10° W 04:12:39 25° NNW 04:16:43 10° NNE visible
24 Apr - 05:53:44 10° NW 05:56:12 14° N 05:58:36 10° NNE daylight
24 Apr - 07:36:56 10° NNW 07:40:02 17° NNE 07:43:00 10° ENE daylight
24 Apr - 09:18:33 10° NNW 09:23:03 48° NE 09:27:15 10° ESE daylight
24 Apr - 11:00:50 10° NW 11:04:41 28° WSW 11:08:21 10° S daylight
25 Apr - 01:32:43 10° SSW 01:38:02 54° ESE 01:42:58 10° NE visible
25 Apr - 03:15:12 10° WSW 03:20:08 37° NW 03:24:43 10° NNE visible
25 Apr - 05:00:19 10° NW 05:03:21 16° NNW 05:06:15 10° NNE visible
25 Apr - 06:44:41 10° NNW 06:47:12 14° N 06:49:39 10° NE daylight
25 Apr - 08:26:31 10° NNW 08:30:38 29° NE 08:34:29 10° E daylight
25 Apr - 10:08:19 10° NW 10:12:48 57° WSW 10:16:59 10° SSE daylight
26 Apr - 00:41:24 10° S 00:46:05 30° ESE 00:50:29 10° NE visible
26 Apr - 02:22:26 10° SW 02:27:46 60° NW 02:32:41 10° NNE visible
26 Apr - 04:06:49 10° WNW 04:10:35 20° NNW 04:14:09 10° NNE visible
26 Apr - 05:52:02 10° NNW 05:54:18 13° N 05:56:30 10° NNE daylight
26 Apr - 07:34:28 10° NNW 07:38:00 20° NNE 07:41:22 10° ENE daylight
26 Apr - 09:16:05 10° NW 09:20:41 74° NE 09:24:59 10° SE daylight
26 Apr - 10:59:02 10° WNW 11:01:55 17° WSW 11:04:44 10° SSW daylight
26 Apr - 23:51:03 10° SE 23:54:16 16° ESE 23:57:22 10° ENE visible
27 Apr - 01:30:06 10° SSW 01:35:32 81° SE 01:40:34 10° NE visible
27 Apr - 03:13:27 10° W 03:17:56 28° NW 03:22:08 10° NNE visible
27 Apr - 04:58:51 10° NW 05:01:24 14° N 05:03:51 10° NNE visible
27 Apr - 06:42:21 10° NNW 06:45:14 16° NNE 06:48:00 10° NE daylight
27 Apr - 08:23:59 10° NNW 08:28:23 41° NE 08:32:29 10° ESE daylight
27 Apr - 10:06:05 10° NW 10:10:09 34° WSW 10:14:01 10° S daylight
28 Apr - 00:38:18 10° S 00:43:27 45° ESE 00:48:15 10° NE visible
28 Apr - 02:20:23 10° WSW 02:25:26 42° NW 02:30:07 10° NNE visible
28 Apr - 04:05:20 10° WNW 04:08:31 16° NNW 04:11:35 10° NNE visible
28 Apr - 05:50:01 10° NNW 05:52:21 13° N 05:54:38 10° NE daylight
28 Apr - 07:31:56 10° NNW 07:35:51 26° NNE 07:39:34 10° E daylight
28 Apr - 09:13:39 10° NW 09:18:11 70° SW 09:22:26 10° SSE daylight
28 Apr - 23:47:11 10° SSE 23:51:31 25° ESE 23:55:37 10° ENE visible
29 Apr - 01:27:43 10° SW 01:33:05 69° NW 01:38:02 10° NE visible
29 Apr - 03:11:49 10° WNW 03:15:46 22° NNW 03:19:30 10° NNE visible
29 Apr - 04:57:11 10° NNW 04:59:26 13° N 05:01:36 10° NNE visible
29 Apr - 06:39:52 10° NNW 06:43:10 19° NNE 06:46:20 10° ENE daylight
29 Apr - 08:21:26 10° NW 08:25:59 62° NE 08:30:14 10° SE daylight
29 Apr - 10:04:03 10° WNW 10:07:22 21° WSW 10:10:35 10° SSW daylight
29 Apr - 22:57:19 10° SE 22:59:44 13° ESE 23:02:05 10° E visible
30 Apr - 00:35:30 10° SSW 00:40:52 69° SE 00:45:51 10° NE visible
30 Apr - 02:18:30 10° W 02:23:08 31° NW 02:27:28 10° NNE visible
30 Apr - 04:03:50 10° NW 04:06:30 14° NNW 04:09:03 10° NNE visible
30 Apr - 05:47:41 10° NNW 05:50:21 15° NNE 05:52:54 10° NE daylight
30 Apr - 07:29:20 10° NNW 07:33:35 35° NE 07:37:35 10° ESE daylight
30 Apr - 09:11:18 10° NW 09:15:31 42° WSW 09:19:32 10° S daylight
30 Apr - 23:43:51 10° S 23:48:48 38° ESE 23:53:26 10° NE visible
01 May - 01:25:31 10° WSW 01:30:39 48° NW 01:35:25 10° NNE visible
01 May - 03:10:16 10° WNW 03:13:37 17° NNW 03:16:51 10° NNE visible
01 May - 04:55:12 10° NNW 04:57:25 13° N 04:59:35 10° NNE visible
01 May - 06:37:15 10° NNW 06:41:00 23° NNE 06:44:33 10° E daylight
01 May - 08:18:55 10° NW 08:23:27 84° WSW 08:27:44 10° SE daylight
01 May - 10:02:39 10° W 10:04:28 12° WSW 10:06:16 10° SW daylight
01 May - 22:52:58 10° SSE 22:56:53 21° ESE 23:00:37 10° ENE visible
02 May - 00:32:57 10° SW 00:38:19 80° NW 00:43:17 10° NE visible
02 May - 02:16:45 10° W 02:20:53 23° NNW 02:24:46 10° NNE visible
02 May - 04:02:12 10° NNW 04:04:28 13° N 04:06:39 10° NNE visible
02 May - 05:45:09 10° NNW 05:48:15 17° NNE 05:51:12 10° ENE daylight
02 May - 07:26:43 10° NNW 07:31:11 52° NE 07:35:22 10° ESE daylight
02 May - 09:09:04 10° WNW 09:12:44 25° WSW 09:16:14 10° S daylight
02 May - 22:04:10 10° ESE 22:05:08 10° ESE 22:06:05 10° E visible
02 May - 23:40:52 10° SSW 23:46:08 58° ESE 23:51:01 10° NE visible
